Time,TemperatureF,DewpointF,PressureIn,WindDirection,WindDirectionDegrees,WindSpeedMPH,WindSpeedGustMPH,Humidity,HourlyPrecipIn,Conditions,Clouds,dailyrainin,SoftwareType,DateUTC
2013-06-15 00:01:00,59.0,45.6,30.05,WSW,255,3.4,3.9,61,0.00,,CLR,0.00,VWS V13.01,2013-06-15 04:01:00,
2013-06-15 00:06:00,59.5,46.1,30.05,NNW,338,3.9,3.9,61,0.00,,CLR,0.00,VWS V13.01,2013-06-15 04:06:00,
2013-06-15 00:11:00,60.3,46.8,30.05,North,357,3.9,5.0,61,0.00,,CLR,0.00,VWS V13.01,2013-06-15 04:11:00,
2013-06-15 00:16:00,61.0,46.6,30.05,NNE,15,3.4,3.4,59,0.00,,CLR,0.00,VWS V13.01,2013-06-15 04:16:00,
2013-06-15 00:21:00,61.5,47.1,30.05,WSW,258,3.9,3.9,59,0.00,,CLR,0.00,VWS V13.01,2013-06-15 04:21:00,
2013-06-15 00:26:00,61.7,46.8,30.05,NW,310,0.0,0.0,58,0.00,,CLR,0.00,VWS V13.01,2013-06-15 04:26:00,
2013-06-15 00:31:00,61.5,45.7,30.05,NNE,23,0.0,0.0,56,0.00,,CLR,0.00,VWS V13.01,2013-06-15 04:31:00,
2013-06-15 00:36:00,61.2,45.4,30.05,NNE,23,0.0,0.0,56,0.00,,CLR,0.00,VWS V13.01,2013-06-15 04:36:00,
2013-06-15 00:41:00,60.6,44.8,30.05,NNE,23,0.0,0.0,56,0.00,,CLR,0.00,VWS V13.01,2013-06-15 04:41:00,
2013-06-15 00:46:00,59.9,44.7,30.05,NNE,23,0.0,0.0,57,0.00,,CLR,0.00,VWS V13.01,2013-06-15 04:46:00,
2013-06-15 00:51:00,59.2,44.0,30.05,NNE,23,0.0,0.0,57,0.00,,CLR,0.00,VWS V13.01,2013-06-15 04:51:00,
2013-06-15 00:56:00,58.8,44.5,30.05,NNE,23,0.0,0.0,59,0.00,,CLR,0.00,VWS V13.01,2013-06-15 04:56:00,
2013-06-15 01:01:00,58.5,44.6,30.05,NNE,23,0.0,0.0,60,0.00,,CLR,0.00,VWS V13.01,2013-06-15 05:01:00,
2013-06-15 01:06:00,58.1,44.3,30.05,NNE,23,0.0,0.0,60,0.00,,CLR,0.00,VWS V13.01,2013-06-15 05:06:00,
2013-06-15 01:11:00,57.9,44.1,30.05,NNE,23,0.0,0.0,60,0.00,,CLR,0.00,VWS V13.01,2013-06-15 05:11:00,
2013-06-15 01:16:00,57.4,43.6,30.05,NNE,23,0.0,0.0,60,0.00,,CLR,0.00,VWS V13.01,2013-06-15 05:16:00,
2013-06-15 01:21:00,56.8,43.5,30.05,NNE,23,0.0,0.0,61,0.00,,CLR,0.00,VWS V13.01,2013-06-15 05:21:00,
2013-06-15 01:26:00,56.5,43.2,30.05,NNE,23,0.0,0.0,61,0.00,,CLR,0.00,VWS V13.01,2013-06-15 05:26:00,
2013-06-15 01:31:00,56.1,42.9,30.05,NNE,23,0.0,0.0,61,0.00,,CLR,0.00,VWS V13.01,2013-06-15 05:31:00,
2013-06-15 01:36:00,55.8,42.5,30.05,NNE,23,0.0,0.0,61,0.00,,CLR,0.00,VWS V13.01,2013-06-15 05:36:00,
2013-06-15 01:41:00,55.4,42.6,30.05,NNE,23,0.0,0.0,62,0.00,,CLR,0.00,VWS V13.01,2013-06-15 05:41:00,
2013-06-15 01:46:00,55.2,42.9,30.05,NNE,23,0.0,0.0,63,0.00,,CLR,0.00,VWS V13.01,2013-06-15 05:46:00,
2013-06-15 01:51:00,55.2,42.9,30.05,NNE,23,0.0,0.0,63,0.00,,CLR,0.00,VWS V13.01,2013-06-15 05:51:00,
2013-06-15 01:56:00,55.0,43.1,30.05,NNE,23,0.0,0.0,64,0.00,,CLR,0.00,VWS V13.01,2013-06-15 05:56:00,
2013-06-15 02:01:00,54.9,42.9,30.05,NNW,332,0.0,0.0,64,0.00,,CLR,0.00,VWS V13.01,2013-06-15 06:01:00,
2013-06-15 02:06:00,54.7,43.2,30.05,NNW,332,0.0,0.0,65,0.00,,CLR,0.00,VWS V13.01,2013-06-15 06:06:00,
2013-06-15 02:11:00,54.7,43.2,30.05,NNW,332,0.0,0.0,65,0.00,,CLR,0.00,VWS V13.01,2013-06-15 06:11:00,
2013-06-15 02:16:00,54.7,43.6,30.05,NW,307,0.0,0.0,66,0.00,,CLR,0.00,VWS V13.01,2013-06-15 06:16:00,
2013-06-15 02:21:00,54.7,43.6,30.05,ENE,67,0.0,0.0,66,0.00,,CLR,0.00,VWS V13.01,2013-06-15 06:21:00,
2013-06-15 02:26:00,54.7,43.6,30.05,ENE,67,0.0,0.0,66,0.00,,CLR,0.00,VWS V13.01,2013-06-15 06:26:00,
2013-06-15 02:31:00,54.7,44.0,30.05,ENE,67,0.0,0.0,67,0.00,,CLR,0.00,VWS V13.01,2013-06-15 06:31:00,
2013-06-15 02:36:00,54.7,44.3,30.05,ENE,67,0.0,0.0,68,0.00,,CLR,0.00,VWS V13.01,2013-06-15 06:36:00,
2013-06-15 02:41:00,54.5,44.2,30.05,ENE,67,0.0,0.0,68,0.00,,CLR,0.00,VWS V13.01,2013-06-15 06:41:00,
2013-06-15 02:46:00,54.3,44.0,30.05,ENE,67,0.0,0.0,68,0.00,,CLR,0.00,VWS V13.01,2013-06-15 06:46:00,
2013-06-15 02:51:00,54.1,43.8,30.05,ENE,67,0.0,0.0,68,0.00,,CLR,0.00,VWS V13.01,2013-06-15 06:51:00,
2013-06-15 02:56:00,53.8,44.2,30.05,East,99,0.0,0.0,70,0.00,,CLR,0.00,VWS V13.01,2013-06-15 06:56:00,
2013-06-15 03:01:00,53.8,44.2,30.05,West,280,3.4,4.5,70,0.00,,CLR,0.00,VWS V13.01,2013-06-15 07:01:00,
2013-06-15 03:06:00,54.0,44.8,30.05,WSW,247,4.5,4.5,71,0.00,,CLR,0.00,VWS V13.01,2013-06-15 07:06:00,
2013-06-15 03:11:00,54.1,45.3,30.05,West,266,3.4,3.9,72,0.00,,CLR,0.00,VWS V13.01,2013-06-15 07:11:00,
2013-06-15 03:16:00,54.1,45.3,30.05,West,259,3.4,3.4,72,0.00,,CLR,0.00,VWS V13.01,2013-06-15 07:16:00,
2013-06-15 03:21:00,54.3,45.5,30.05,West,281,3.4,3.9,72,0.00,,CLR,0.00,VWS V13.01,2013-06-15 07:21:00,
2013-06-15 03:26:00,54.3,45.5,30.05,West,270,3.4,3.4,72,0.00,,CLR,0.00,VWS V13.01,2013-06-15 07:26:00,
2013-06-15 03:31:00,54.3,45.9,30.05,WSW,248,3.4,4.5,73,0.00,,CLR,0.00,VWS V13.01,2013-06-15 07:31:00,
2013-06-15 03:36:00,54.3,45.5,30.05,WSW,248,0.0,0.0,72,0.00,,CLR,0.00,VWS V13.01,2013-06-15 07:36:00,
2013-06-15 03:41:00,54.1,45.3,30.05,WSW,248,0.0,0.0,72,0.00,,CLR,0.00,VWS V13.01,2013-06-15 07:41:00,
2013-06-15 03:46:00,54.0,45.2,30.05,WSW,248,0.0,0.0,72,0.00,,CLR,0.00,VWS V13.01,2013-06-15 07:46:00,
2013-06-15 03:51:00,53.8,45.0,30.05,WNW,295,0.0,0.0,72,0.00,,CLR,0.00,VWS V13.01,2013-06-15 07:51:00,
2013-06-15 03:56:00,53.8,45.0,30.05,North,353,0.0,3.9,72,0.00,,CLR,0.00,VWS V13.01,2013-06-15 07:56:00,
2013-06-15 04:01:00,53.8,45.3,30.05,North,353,0.0,0.0,73,0.00,,CLR,0.00,VWS V13.01,2013-06-15 08:01:00,
2013-06-15 04:06:00,53.4,45.0,30.05,North,353,0.0,0.0,73,0.00,,CLR,0.00,VWS V13.01,2013-06-15 08:06:00,
2013-06-15 04:11:00,53.2,44.8,30.05,North,353,0.0,0.0,73,0.00,,CLR,0.00,VWS V13.01,2013-06-15 08:11:00,
2013-06-15 04:16:00,52.9,44.5,30.05,North,353,0.0,0.0,73,0.00,,CLR,0.00,VWS V13.01,2013-06-15 08:16:00,
2013-06-15 04:21:00,52.7,44.3,30.05,North,353,0.0,0.0,73,0.00,,CLR,0.00,VWS V13.01,2013-06-15 08:21:00,
2013-06-15 04:26:00,52.5,44.1,30.05,North,353,0.0,0.0,73,0.00,,CLR,0.00,VWS V13.01,2013-06-15 08:26:00,
2013-06-15 04:31:00,52.3,44.0,30.05,North,353,0.0,0.0,73,0.00,,CLR,0.00,VWS V13.01,2013-06-15 08:31:00,
2013-06-15 04:36:00,52.2,43.8,30.05,North,353,0.0,0.0,73,0.00,,,0.00,VWS V13.01,2013-06-15 08:36:00,
2013-06-15 04:42:00,51.3,43.3,30.05,North,353,0.0,0.0,74,0.00,,,0.00,VWS V13.01,2013-06-15 08:42:00,
2013-06-15 04:47:00,51.8,43.4,30.05,North,353,0.0,0.0,73,0.00,,,0.00,VWS V13.01,2013-06-15 08:47:00,
2013-06-15 04:51:00,51.6,43.6,30.05,North,353,0.0,0.0,74,0.00,,,0.00,VWS V13.01,2013-06-15 08:51:00,
2013-06-15 04:56:00,51.6,44.0,30.05,North,353,0.0,0.0,75,0.00,,,0.00,VWS V13.01,2013-06-15 08:56:00,
2013-06-15 05:01:00,51.4,43.8,30.05,WSW,242,0.0,3.4,75,0.00,,CLR,0.00,VWS V13.01,2013-06-15 09:01:00,
2013-06-15 05:06:00,51.3,43.6,30.05,WSW,242,0.0,0.0,75,0.00,,CLR,0.00,VWS V13.01,2013-06-15 09:06:00,
2013-06-15 05:11:00,51.3,43.6,30.05,WSW,242,0.0,0.0,75,0.00,,CLR,0.00,VWS V13.01,2013-06-15 09:11:00,
2013-06-15 05:16:00,51.1,43.4,30.05,WSW,242,0.0,0.0,75,0.00,,CLR,0.00,VWS V13.01,2013-06-15 09:16:00,
2013-06-15 05:21:00,51.1,43.8,30.05,WSW,242,0.0,0.0,76,0.00,,CLR,0.00,VWS V13.01,2013-06-15 09:21:00,
2013-06-15 05:26:00,51.1,43.8,30.08,WSW,242,0.0,0.0,76,0.00,,CLR,0.00,VWS V13.01,2013-06-15 09:26:00,
2013-06-15 05:31:00,51.3,44.3,30.08,WSW,242,0.0,0.0,77,0.00,,CLR,0.00,VWS V13.01,2013-06-15 09:31:00,
2013-06-15 05:36:00,51.3,44.3,30.08,WSW,242,0.0,0.0,77,0.00,,CLR,0.00,VWS V13.01,2013-06-15 09:36:00,
2013-06-15 05:41:00,51.1,44.1,30.08,WSW,242,0.0,0.0,77,0.00,,,0.00,VWS V13.01,2013-06-15 09:41:00,
2013-06-15 05:46:00,50.9,44.0,30.08,WSW,242,0.0,0.0,77,0.00,,,0.00,VWS V13.01,2013-06-15 09:46:00,
2013-06-15 05:51:00,50.9,44.0,30.08,WSW,242,0.0,0.0,77,0.00,,,0.00,VWS V13.01,2013-06-15 09:51:00,
2013-06-15 05:57:00,50.9,44.0,30.08,WSW,242,0.0,0.0,77,0.00,,,0.00,VWS V13.01,2013-06-15 09:57:00,
2013-06-15 06:01:00,50.7,43.8,30.08,WSW,242,0.0,0.0,77,0.00,,,0.00,VWS V13.01,2013-06-15 10:01:00,
2013-06-15 06:07:00,50.7,43.8,30.08,WSW,242,0.0,0.0,77,0.00,,,0.00,VWS V13.01,2013-06-15 10:07:00,
2013-06-15 06:12:00,50.5,43.6,30.11,WSW,242,0.0,0.0,77,0.00,,,0.00,VWS V13.01,2013-06-15 10:12:00,
2013-06-15 06:17:00,50.7,44.1,30.11,WSW,242,0.0,0.0,78,0.00,,,0.00,VWS V13.01,2013-06-15 10:17:00,
2013-06-15 06:22:00,50.7,44.1,30.11,WSW,242,0.0,0.0,78,0.00,,,0.00,VWS V13.01,2013-06-15 10:22:00,
2013-06-15 06:27:00,50.9,44.3,30.08,WSW,242,0.0,0.0,78,0.00,,,0.00,VWS V13.01,2013-06-15 10:27:00,
2013-06-15 06:32:00,50.9,44.3,30.08,WSW,242,0.0,0.0,78,0.00,,,0.00,VWS V13.01,2013-06-15 10:32:00,
2013-06-15 06:37:00,51.6,45.0,30.08,WSW,242,0.0,0.0,78,0.00,,,0.00,VWS V13.01,2013-06-15 10:37:00,
2013-06-15 06:42:00,53.1,46.4,30.11,WSW,242,0.0,0.0,78,0.00,,,0.00,VWS V13.01,2013-06-15 10:42:00,
2013-06-15 06:47:00,54.1,47.1,30.11,WSW,242,0.0,0.0,77,0.00,,,0.00,VWS V13.01,2013-06-15 10:47:00,
2013-06-15 06:52:00,55.4,48.3,30.11,WSW,242,0.0,0.0,77,0.00,,,0.00,VWS V13.01,2013-06-15 10:52:00,
2013-06-15 06:57:00,56.7,49.5,30.11,WSW,242,0.0,0.0,77,0.00,,,0.00,VWS V13.01,2013-06-15 10:57:00,
2013-06-15 07:02:00,57.9,50.8,30.11,WSW,242,0.0,0.0,77,0.00,,,0.00,VWS V13.01,2013-06-15 11:02:00,
2013-06-15 07:07:00,58.6,50.8,30.11,SE,127,3.4,3.4,75,0.00,,,0.00,VWS V13.01,2013-06-15 11:07:00,
2013-06-15 07:12:00,59.9,51.6,30.11,South,169,0.0,0.0,74,0.00,,,0.00,VWS V13.01,2013-06-15 11:12:00,
2013-06-15 07:17:00,60.8,51.0,30.11,South,169,0.0,0.0,70,0.00,,,0.00,VWS V13.01,2013-06-15 11:17:00,
2013-06-15 07:22:00,61.0,50.4,30.11,SE,138,2.8,3.9,68,0.00,,CLR,0.00,VWS V13.01,2013-06-15 11:22:00,
2013-06-15 07:27:00,61.5,49.2,30.11,SSE,165,0.0,0.0,64,0.00,,CLR,0.00,VWS V13.01,2013-06-15 11:27:00,
2013-06-15 07:32:00,62.2,51.2,30.11,SSE,165,0.0,0.0,67,0.00,,CLR,0.00,VWS V13.01,2013-06-15 11:32:00,
2013-06-15 07:37:00,63.5,52.0,30.11,SSE,165,0.0,0.0,66,0.00,,CLR,0.00,VWS V13.01,2013-06-15 11:37:00,
2013-06-15 07:42:00,64.8,53.6,30.11,SSE,165,0.0,0.0,67,0.00,,CLR,0.00,VWS V13.01,2013-06-15 11:42:00,
2013-06-15 07:47:00,66.0,51.8,30.11,SE,146,3.4,3.4,60,0.00,,CLR,0.00,VWS V13.01,2013-06-15 11:47:00,
2013-06-15 07:52:00,66.2,50.5,30.11,SE,134,3.9,3.9,57,0.00,,CLR,0.00,VWS V13.01,2013-06-15 11:52:00,
2013-06-15 07:57:00,66.0,49.4,30.11,SE,135,2.8,3.9,55,0.00,,CLR,0.00,VWS V13.01,2013-06-15 11:57:00,
2013-06-15 08:02:00,66.2,48.1,30.11,SE,125,6.7,6.7,52,0.00,,CLR,0.00,VWS V13.01,2013-06-15 12:02:00,
2013-06-15 08:07:00,66.0,48.4,30.11,NE,49,0.0,2.8,53,0.00,,CLR,0.00,VWS V13.01,2013-06-15 12:07:00,
2013-06-15 08:12:00,66.2,48.1,30.11,SSE,156,4.5,4.5,52,0.00,,CLR,0.00,VWS V13.01,2013-06-15 12:12:00,
2013-06-15 08:17:00,66.2,48.1,30.11,SE,129,2.8,3.9,52,0.00,,CLR,0.00,VWS V13.01,2013-06-15 12:17:00,
2013-06-15 08:22:00,66.6,48.4,30.11,ESE,119,5.0,5.0,52,0.00,,CLR,0.00,VWS V13.01,2013-06-15 12:22:00,
2013-06-15 08:27:00,67.1,48.9,30.11,SE,128,4.5,4.5,52,0.00,,CLR,0.00,VWS V13.01,2013-06-15 12:27:00,
2013-06-15 08:32:00,67.5,48.7,30.11,SSE,164,3.4,5.0,51,0.00,,CLR,0.00,VWS V13.01,2013-06-15 12:32:00,
2013-06-15 08:37:00,67.8,48.5,30.11,SSE,150,3.9,5.0,50,0.00,,CLR,0.00,VWS V13.01,2013-06-15 12:37:00,
2013-06-15 08:42:00,68.0,48.7,30.11,SE,146,3.4,3.4,50,0.00,,CLR,0.00,VWS V13.01,2013-06-15 12:42:00,
2013-06-15 08:47:00,68.4,48.5,30.11,SSW,196,4.5,4.5,49,0.00,,CLR,0.00,VWS V13.01,2013-06-15 12:47:00,
2013-06-15 08:52:00,68.5,48.6,30.11,SSE,151,4.5,5.0,49,0.00,,CLR,0.00,VWS V13.01,2013-06-15 12:52:00,
2013-06-15 08:57:00,69.6,50.2,30.11,West,268,3.9,3.9,50,0.00,,CLR,0.00,VWS V13.01,2013-06-15 12:57:00,
2013-06-15 09:02:00,70.0,49.4,30.11,SSW,200,2.8,3.4,48,0.00,,CLR,0.00,VWS V13.01,2013-06-15 13:02:00,
2013-06-15 09:07:00,70.3,49.7,30.11,SSE,151,4.5,4.5,48,0.00,,CLR,0.00,VWS V13.01,2013-06-15 13:07:00,
2013-06-15 09:12:00,70.2,49.6,30.11,SW,218,0.0,0.0,48,0.00,,CLR,0.00,VWS V13.01,2013-06-15 13:12:00,
2013-06-15 09:17:00,70.3,49.7,30.11,SE,139,4.5,4.5,48,0.00,,CLR,0.00,VWS V13.01,2013-06-15 13:17:00,
2013-06-15 09:22:00,71.1,50.4,30.11,SE,146,3.4,5.0,48,0.00,,CLR,0.00,VWS V13.01,2013-06-15 13:22:00,
2013-06-15 09:27:00,72.1,50.8,30.11,ESE,107,3.4,3.4,47,0.00,,CLR,0.00,VWS V13.01,2013-06-15 13:27:00,
2013-06-15 09:32:00,72.9,51.5,30.11,SE,138,4.5,5.6,47,0.00,,CLR,0.00,VWS V13.01,2013-06-15 13:32:00,
2013-06-15 09:37:00,73.8,52.3,30.11,ESE,117,0.0,5.0,47,0.00,,CLR,0.00,VWS V13.01,2013-06-15 13:37:00,
2013-06-15 09:42:00,73.9,51.9,30.11,West,263,5.0,5.0,46,0.00,,CLR,0.00,VWS V13.01,2013-06-15 13:42:00,
2013-06-15 09:47:00,73.9,51.9,30.11,West,281,0.0,0.0,46,0.00,,CLR,0.00,VWS V13.01,2013-06-15 13:47:00,
2013-06-15 09:52:00,74.5,52.4,30.11,SE,135,5.0,6.7,46,0.00,,CLR,0.00,VWS V13.01,2013-06-15 13:52:00,
2013-06-15 09:57:00,75.0,52.9,30.11,ENE,78,3.4,4.5,46,0.00,,CLR,0.00,VWS V13.01,2013-06-15 13:57:00,
2013-06-15 10:02:00,75.0,52.9,30.11,SSE,165,3.4,3.9,46,0.00,,CLR,0.00,VWS V13.01,2013-06-15 14:02:00,
2013-06-15 10:07:00,75.4,53.2,30.11,SE,145,5.6,6.2,46,0.00,,CLR,0.00,VWS V13.01,2013-06-15 14:07:00,
2013-06-15 10:12:00,75.4,53.2,30.11,SE,128,3.4,6.7,46,0.00,,CLR,0.00,VWS V13.01,2013-06-15 14:12:00,
2013-06-15 10:17:00,75.9,53.7,30.11,South,181,3.4,3.9,46,0.00,,CLR,0.00,VWS V13.01,2013-06-15 14:17:00,
2013-06-15 10:22:00,76.1,53.8,30.11,SSW,206,0.0,3.4,46,0.00,,CLR,0.00,VWS V13.01,2013-06-15 14:22:00,
2013-06-15 10:27:00,76.5,54.2,30.11,East,94,5.0,6.2,46,0.00,,CLR,0.00,VWS V13.01,2013-06-15 14:27:00,
2013-06-15 10:32:00,76.6,53.7,30.11,SSW,194,2.8,4.5,45,0.00,,CLR,0.00,VWS V13.01,2013-06-15 14:32:00,
2013-06-15 10:37:00,76.8,53.9,30.11,South,183,0.0,4.5,45,0.00,,CLR,0.00,VWS V13.01,2013-06-15 14:37:00,
2013-06-15 10:42:00,77.0,54.1,30.11,South,182,0.0,3.4,45,0.00,,CLR,0.00,VWS V13.01,2013-06-15 14:42:00,
2013-06-15 10:47:00,77.0,54.1,30.11,SSW,196,5.0,5.6,45,0.00,,CLR,0.00,VWS V13.01,2013-06-15 14:47:00,
2013-06-15 10:52:00,76.6,53.7,30.11,SE,142,4.5,4.5,45,0.00,,CLR,0.00,VWS V13.01,2013-06-15 14:52:00,
2013-06-15 10:57:00,76.8,53.9,30.11,SE,130,3.9,5.0,45,0.00,,CLR,0.00,VWS V13.01,2013-06-15 14:57:00,
2013-06-15 11:02:00,77.4,54.4,30.11,SW,228,5.0,5.0,45,0.00,,CLR,0.00,VWS V13.01,2013-06-15 15:02:00,
2013-06-15 11:07:00,77.7,54.7,30.11,ENE,74,3.9,6.2,45,0.00,,CLR,0.00,VWS V13.01,2013-06-15 15:07:00,
2013-06-15 11:12:00,77.7,54.7,30.11,ESE,115,5.0,6.2,45,0.00,,CLR,0.00,VWS V13.01,2013-06-15 15:12:00,
2013-06-15 11:17:00,78.3,55.2,30.11,SSE,160,4.5,6.2,45,0.00,,CLR,0.00,VWS V13.01,2013-06-15 15:17:00,
2013-06-15 11:22:00,78.3,54.0,30.11,ESE,122,6.7,6.7,43,0.00,,CLR,0.00,VWS V13.01,2013-06-15 15:22:00,
2013-06-15 11:27:00,78.6,54.3,30.08,SSE,150,3.9,4.5,43,0.00,,CLR,0.00,VWS V13.01,2013-06-15 15:27:00,
2013-06-15 11:32:00,78.6,54.3,30.08,South,182,5.0,5.0,43,0.00,,CLR,0.00,VWS V13.01,2013-06-15 15:32:00,
2013-06-15 11:37:00,78.6,54.3,30.08,WNW,301,0.0,5.0,43,0.00,,CLR,0.00,VWS V13.01,2013-06-15 15:37:00,
2013-06-15 11:42:00,78.6,54.3,30.08,SE,127,3.9,4.5,43,0.00,,CLR,0.00,VWS V13.01,2013-06-15 15:42:00,
2013-06-15 11:47:00,79.0,54.0,30.08,SSW,194,0.0,3.4,42,0.00,,CLR,0.00,VWS V13.01,2013-06-15 15:47:00,
2013-06-15 11:52:00,79.7,54.6,30.08,ESE,113,0.0,4.5,42,0.00,,CLR,0.00,VWS V13.01,2013-06-15 15:52:00,
2013-06-15 11:57:00,79.3,54.3,30.08,West,276,3.4,5.0,42,0.00,,CLR,0.00,VWS V13.01,2013-06-15 15:57:00,
2013-06-15 12:02:00,79.0,54.0,30.08,West,281,3.4,6.7,42,0.00,,CLR,0.00,VWS V13.01,2013-06-15 16:02:00,
2013-06-15 12:07:00,79.2,54.1,30.08,West,275,5.0,5.0,42,0.00,,CLR,0.00,VWS V13.01,2013-06-15 16:07:00,
2013-06-15 12:12:00,79.9,54.8,30.08,SW,233,3.4,6.7,42,0.00,,CLR,0.00,VWS V13.01,2013-06-15 16:12:00,
2013-06-15 12:17:00,80.4,55.2,30.08,North,357,6.2,6.7,42,0.00,,CLR,0.00,VWS V13.01,2013-06-15 16:17:00,
2013-06-15 12:22:00,80.4,55.2,30.08,WSW,253,7.3,7.3,42,0.00,,BKN060,0.00,VWS V13.01,2013-06-15 16:22:00,
2013-06-15 12:27:00,79.9,53.4,30.08,WSW,245,3.4,6.7,40,0.00,,BKN060,0.00,VWS V13.01,2013-06-15 16:27:00,
2013-06-15 12:32:00,79.5,54.4,30.08,North,357,3.4,7.8,42,0.00,,BKN060,0.00,VWS V13.01,2013-06-15 16:32:00,
2013-06-15 12:37:00,79.7,54.6,30.08,WNW,298,0.0,6.7,42,0.00,,BKN060,0.00,VWS V13.01,2013-06-15 16:37:00,
2013-06-15 12:42:00,79.9,54.8,30.08,WNW,291,7.3,8.4,42,0.00,,SCT060,0.00,VWS V13.01,2013-06-15 16:42:00,
2013-06-15 12:47:00,79.5,54.4,30.08,NNW,345,3.4,5.0,42,0.00,,SCT060,0.00,VWS V13.01,2013-06-15 16:47:00,
2013-06-15 12:52:00,79.3,54.3,30.08,North,8,6.7,6.7,42,0.00,,SCT060,0.00,VWS V13.01,2013-06-15 16:52:00,
2013-06-15 12:57:00,79.3,54.3,30.08,East,88,0.0,7.3,42,0.00,,SCT060,0.00,VWS V13.01,2013-06-15 16:57:00,
2013-06-15 13:02:00,80.1,54.9,30.08,West,271,5.0,6.7,42,0.00,,BKN060,0.00,VWS V13.01,2013-06-15 17:02:00,
2013-06-15 13:07:00,80.8,55.6,30.08,West,264,5.0,6.2,42,0.00,,BKN060,0.00,VWS V13.01,2013-06-15 17:07:00,
2013-06-15 13:12:00,81.5,56.2,30.08,WSW,254,7.8,7.8,42,0.00,,BKN060,0.00,VWS V13.01,2013-06-15 17:12:00,
2013-06-15 13:17:00,82.0,54.7,30.08,NW,306,6.7,7.3,39,0.00,,SCT050,0.00,VWS V13.01,2013-06-15 17:17:00,
2013-06-15 13:22:00,82.0,54.7,30.08,SW,230,3.4,3.9,39,0.00,,SCT050,0.00,VWS V13.01,2013-06-15 17:22:00,
2013-06-15 13:27:00,82.2,54.8,30.08,WSW,255,3.4,5.6,39,0.00,,SCT050,0.00,VWS V13.01,2013-06-15 17:27:00,
2013-06-15 13:32:00,82.6,56.5,30.08,WNW,295,3.4,3.4,41,0.00,,SCT050,0.00,VWS V13.01,2013-06-15 17:32:00,
2013-06-15 13:37:00,82.2,54.8,30.08,SW,232,3.4,5.0,39,0.00,,CLR,0.00,VWS V13.01,2013-06-15 17:37:00,
2013-06-15 13:42:00,81.9,54.5,30.05,SW,232,3.4,4.5,39,0.00,,CLR,0.00,VWS V13.01,2013-06-15 17:42:00,
2013-06-15 13:47:00,81.5,54.2,30.05,West,262,6.2,6.7,39,0.00,,CLR,0.00,VWS V13.01,2013-06-15 17:47:00,
2013-06-15 13:52:00,81.7,54.3,30.05,West,278,5.6,7.8,39,0.00,,CLR,0.00,VWS V13.01,2013-06-15 17:52:00,
2013-06-15 13:57:00,82.0,54.7,30.05,WSW,243,4.5,6.7,39,0.00,,SCT060,0.00,VWS V13.01,2013-06-15 17:57:00,
2013-06-15 14:02:00,82.4,55.0,30.05,West,269,4.5,6.7,39,0.00,,SCT060,0.00,VWS V13.01,2013-06-15 18:02:00,
2013-06-15 14:07:00,82.8,55.3,30.05,South,169,3.9,5.0,39,0.00,,SCT060,0.00,VWS V13.01,2013-06-15 18:07:00,
2013-06-15 14:12:00,82.8,55.3,30.05,WSW,257,6.7,7.3,39,0.00,,SCT060,0.00,VWS V13.01,2013-06-15 18:12:00,
2013-06-15 14:17:00,82.2,54.8,30.05,SW,236,3.4,3.9,39,0.00,,SCT060,0.00,VWS V13.01,2013-06-15 18:17:00,
2013-06-15 14:22:00,82.0,54.7,30.05,West,277,9.5,9.5,39,0.00,,SCT060,0.00,VWS V13.01,2013-06-15 18:22:00,
2013-06-15 14:27:00,82.2,54.8,30.05,WSW,242,0.0,3.4,39,0.00,,SCT060,0.00,VWS V13.01,2013-06-15 18:27:00,
2013-06-15 14:32:00,82.8,55.3,30.05,WNW,293,4.5,5.0,39,0.00,,SCT060,0.00,VWS V13.01,2013-06-15 18:32:00,
2013-06-15 14:37:00,82.9,55.5,30.05,West,275,5.0,7.8,39,0.00,,SCT060,0.00,VWS V13.01,2013-06-15 18:37:00,
2013-06-15 14:42:00,83.1,55.6,30.05,South,177,6.7,7.8,39,0.00,,SCT060,0.00,VWS V13.01,2013-06-15 18:42:00,
2013-06-15 14:47:00,83.3,55.8,30.05,WSW,255,2.8,3.9,39,0.00,,SCT060,0.00,VWS V13.01,2013-06-15 18:47:00,
2013-06-15 14:52:00,83.7,56.1,30.05,WSW,241,6.7,6.7,39,0.00,,SCT060,0.00,VWS V13.01,2013-06-15 18:52:00,
2013-06-15 14:57:00,83.7,56.1,30.05,WNW,288,0.0,6.2,39,0.00,,SCT060,0.00,VWS V13.01,2013-06-15 18:57:00,
2013-06-15 15:02:00,83.7,56.1,30.05,West,259,8.9,9.5,39,0.00,,SCT060,0.00,VWS V13.01,2013-06-15 19:02:00,
2013-06-15 15:07:00,83.1,55.6,30.05,South,169,3.4,5.0,39,0.00,,SCT065,0.00,VWS V13.01,2013-06-15 19:07:00,
2013-06-15 15:12:00,83.1,55.6,30.05,NNW,331,4.5,4.5,39,0.00,,SCT065,0.00,VWS V13.01,2013-06-15 19:12:00,
2013-06-15 15:17:00,83.3,55.8,30.05,West,262,0.0,3.9,39,0.00,,SCT065,0.00,VWS V13.01,2013-06-15 19:17:00,
2013-06-15 15:22:00,83.7,56.1,30.05,WNW,289,6.2,7.3,39,0.00,,SCT065,0.00,VWS V13.01,2013-06-15 19:22:00,
2013-06-15 15:27:00,84.0,56.4,30.05,WNW,298,3.4,4.5,39,0.00,,SCT065,0.00,VWS V13.01,2013-06-15 19:27:00,
2013-06-15 15:32:00,83.7,56.1,30.05,North,357,0.0,5.0,39,0.00,,SCT065,0.00,VWS V13.01,2013-06-15 19:32:00,
2013-06-15 15:37:00,82.8,55.3,30.05,NE,42,0.0,7.3,39,0.00,,SCT065,0.00,VWS V13.01,2013-06-15 19:37:00,
2013-06-15 15:42:00,82.6,55.1,30.05,West,269,0.0,2.8,39,0.00,,SCT065,0.00,VWS V13.01,2013-06-15 19:42:00,
2013-06-15 15:47:00,82.9,55.5,30.05,NW,318,4.5,4.5,39,0.00,,SCT065,0.00,VWS V13.01,2013-06-15 19:47:00,
2013-06-15 15:52:00,83.1,55.6,30.05,SSE,166,6.7,7.8,39,0.00,,SCT065,0.00,VWS V13.01,2013-06-15 19:52:00,
2013-06-15 15:57:00,82.8,55.3,30.02,ESE,107,3.4,3.4,39,0.00,,SCT065,0.00,VWS V13.01,2013-06-15 19:57:00,
2013-06-15 16:02:00,82.6,55.1,30.02,SE,136,0.0,5.0,39,0.00,,SCT065,0.00,VWS V13.01,2013-06-15 20:02:00,
2013-06-15 16:07:00,82.6,55.1,30.02,ESE,103,0.0,3.4,39,0.00,,SCT065,0.00,VWS V13.01,2013-06-15 20:07:00,
2013-06-15 16:12:00,82.2,54.8,30.02,SSW,196,0.0,4.5,39,0.00,,SCT065,0.00,VWS V13.01,2013-06-15 20:12:00,
2013-06-15 16:17:00,81.5,54.2,30.02,ENE,62,3.4,4.5,39,0.00,,SCT065,0.00,VWS V13.01,2013-06-15 20:17:00,
2013-06-15 16:22:00,81.1,53.9,30.02,North,357,0.0,5.0,39,0.00,,CLR,0.00,VWS V13.01,2013-06-15 20:22:00,
2013-06-15 16:27:00,81.3,54.0,30.02,SE,136,3.4,3.9,39,0.00,,CLR,0.00,VWS V13.01,2013-06-15 20:27:00,
2013-06-15 16:32:00,81.7,54.3,30.02,SSW,202,0.0,6.2,39,0.00,,CLR,0.00,VWS V13.01,2013-06-15 20:32:00,
2013-06-15 16:37:00,81.7,54.3,30.02,WSW,253,4.5,5.0,39,0.00,,CLR,0.00,VWS V13.01,2013-06-15 20:37:00,
2013-06-15 16:42:00,81.9,54.5,30.02,WNW,302,4.5,4.5,39,0.00,,CLR,0.00,VWS V13.01,2013-06-15 20:42:00,
2013-06-15 16:47:00,82.0,54.7,30.02,West,261,6.7,7.3,39,0.00,,CLR,0.00,VWS V13.01,2013-06-15 20:47:00,
2013-06-15 16:52:00,81.7,54.3,30.02,WSW,254,0.0,0.0,39,0.00,,CLR,0.00,VWS V13.01,2013-06-15 20:52:00,
2013-06-15 16:57:00,81.5,54.2,30.02,SE,138,5.0,5.0,39,0.00,,CLR,0.00,VWS V13.01,2013-06-15 20:57:00,
2013-06-15 17:02:00,81.3,54.0,30.02,ESE,105,3.9,4.5,39,0.00,,CLR,0.00,VWS V13.01,2013-06-15 21:02:00,
2013-06-15 17:07:00,81.3,54.0,30.02,SSW,201,0.0,0.0,39,0.00,,CLR,0.00,VWS V13.01,2013-06-15 21:07:00,
2013-06-15 17:12:00,81.0,53.7,30.02,South,171,0.0,4.5,39,0.00,,CLR,0.00,VWS V13.01,2013-06-15 21:12:00,
2013-06-15 17:17:00,80.6,53.4,30.02,SW,230,7.3,7.3,39,0.00,,CLR,0.00,VWS V13.01,2013-06-15 21:17:00,
2013-06-15 17:22:00,80.2,53.8,30.02,West,260,2.8,3.4,40,0.00,,CLR,0.00,VWS V13.01,2013-06-15 21:22:00,
2013-06-15 17:27:00,79.9,53.4,30.02,WSW,252,4.5,6.2,40,0.00,,CLR,0.00,VWS V13.01,2013-06-15 21:27:00,
2013-06-15 17:32:00,79.7,53.3,30.02,SSE,157,0.0,2.8,40,0.00,,CLR,0.00,VWS V13.01,2013-06-15 21:32:00,
2013-06-15 17:37:00,79.5,53.1,30.02,SSW,207,3.9,5.0,40,0.00,,CLR,0.00,VWS V13.01,2013-06-15 21:37:00,
2013-06-15 17:42:00,79.3,53.0,30.02,SE,140,4.5,6.2,40,0.00,,CLR,0.00,VWS V13.01,2013-06-15 21:42:00,
2013-06-15 17:47:00,79.3,53.0,30.02,ESE,118,4.5,7.8,40,0.00,,CLR,0.00,VWS V13.01,2013-06-15 21:47:00,
2013-06-15 17:52:00,79.2,52.8,30.02,WSW,246,3.4,7.3,40,0.00,,CLR,0.00,VWS V13.01,2013-06-15 21:52:00,
2013-06-15 17:57:00,79.0,52.6,30.02,SSE,148,4.5,4.5,40,0.00,,CLR,0.00,VWS V13.01,2013-06-15 21:57:00,
2013-06-15 18:02:00,78.8,52.5,30.02,ESE,123,2.8,6.2,40,0.00,,CLR,0.00,VWS V13.01,2013-06-15 22:02:00,
2013-06-15 18:07:00,78.8,52.5,30.02,SSE,156,5.0,6.7,40,0.00,,CLR,0.00,VWS V13.01,2013-06-15 22:07:00,
2013-06-15 18:12:00,78.8,52.5,30.02,SW,214,3.4,4.5,40,0.00,,CLR,0.00,VWS V13.01,2013-06-15 22:12:00,
2013-06-15 18:17:00,78.8,52.5,30.02,South,181,3.9,4.5,40,0.00,,CLR,0.00,VWS V13.01,2013-06-15 22:17:00,
2013-06-15 18:22:00,78.6,52.3,30.02,SSE,147,5.0,5.0,40,0.00,,CLR,0.00,VWS V13.01,2013-06-15 22:22:00,
2013-06-15 18:27:00,78.6,52.3,30.02,SSE,162,6.2,6.2,40,0.00,,CLR,0.00,VWS V13.01,2013-06-15 22:27:00,
2013-06-15 18:32:00,78.6,52.3,30.02,South,189,4.5,6.2,40,0.00,,CLR,0.00,VWS V13.01,2013-06-15 22:32:00,
2013-06-15 18:37:00,78.4,52.1,30.02,SW,233,3.4,4.5,40,0.00,,CLR,0.00,VWS V13.01,2013-06-15 22:37:00,
2013-06-15 18:42:00,78.4,52.1,30.02,SW,224,3.9,6.7,40,0.00,,SCT075,0.00,VWS V13.01,2013-06-15 22:42:00,
2013-06-15 18:47:00,78.4,52.1,30.02,SSW,201,4.5,8.4,40,0.00,,SCT075,0.00,VWS V13.01,2013-06-15 22:47:00,
2013-06-15 18:52:00,78.4,52.1,30.02,SSW,192,0.0,3.9,40,0.00,,SCT075,0.00,VWS V13.01,2013-06-15 22:52:00,
2013-06-15 18:57:00,78.1,51.8,30.02,SW,235,6.2,6.2,40,0.00,,SCT075,0.00,VWS V13.01,2013-06-15 22:57:00,
2013-06-15 19:02:00,78.1,51.8,30.02,WSW,241,2.8,4.5,40,0.00,,SCT075,0.00,VWS V13.01,2013-06-15 23:02:00,
2013-06-15 19:07:00,77.9,51.7,30.02,SSW,201,3.4,5.6,40,0.00,,SCT075,0.00,VWS V13.01,2013-06-15 23:07:00,
2013-06-15 19:12:00,77.7,51.5,30.02,South,183,0.0,0.0,40,0.00,,SCT075,0.00,VWS V13.01,2013-06-15 23:12:00,
2013-06-15 19:17:00,77.5,51.3,30.02,SSE,157,2.8,4.5,40,0.00,,SCT075,0.00,VWS V13.01,2013-06-15 23:17:00,
2013-06-15 19:22:00,77.2,51.0,30.02,South,178,0.0,3.4,40,0.00,,SCT075,0.00,VWS V13.01,2013-06-15 23:22:00,
2013-06-15 19:27:00,76.8,50.7,30.02,SSE,162,3.4,3.4,40,0.00,,SCT075,0.00,VWS V13.01,2013-06-15 23:27:00,
2013-06-15 19:32:00,76.5,50.4,30.02,SE,145,0.0,0.0,40,0.00,,SCT075,0.00,VWS V13.01,2013-06-15 23:32:00,
2013-06-15 19:37:00,76.3,50.2,30.02,SSE,149,0.0,0.0,40,0.00,,CLR,0.00,VWS V13.01,2013-06-15 23:37:00,
2013-06-15 19:42:00,75.9,49.9,30.02,SSE,150,0.0,0.0,40,0.00,,CLR,0.00,VWS V13.01,2013-06-15 23:42:00,
2013-06-15 19:47:00,75.7,49.7,30.02,SSE,167,2.8,4.5,40,0.00,,CLR,0.00,VWS V13.01,2013-06-15 23:47:00,
2013-06-15 19:52:00,75.6,49.6,30.02,SW,224,0.0,0.0,40,0.00,,CLR,0.00,VWS V13.01,2013-06-15 23:52:00,
2013-06-15 19:57:00,75.4,49.4,30.02,SSW,196,0.0,0.0,40,0.00,,CLR,0.00,VWS V13.01,2013-06-15 23:57:00,
2013-06-15 20:02:00,75.0,49.8,30.02,SSW,196,0.0,0.0,41,0.00,,CLR,0.00,VWS V13.01,2013-06-16 00:02:00,
2013-06-15 20:07:00,74.8,50.9,30.02,South,180,0.0,0.0,43,0.00,,CLR,0.00,VWS V13.01,2013-06-16 00:07:00,
2013-06-15 20:12:00,74.7,50.7,30.02,South,172,0.0,0.0,43,0.00,,CLR,0.00,VWS V13.01,2013-06-16 00:12:00,
2013-06-15 20:17:00,74.3,50.4,30.02,South,172,0.0,0.0,43,0.00,,CLR,0.00,VWS V13.01,2013-06-16 00:17:00,
2013-06-15 20:22:00,74.1,50.2,30.02,South,172,0.0,0.0,43,0.00,,CLR,0.00,VWS V13.01,2013-06-16 00:22:00,
2013-06-15 20:27:00,73.8,49.9,30.02,South,172,0.0,0.0,43,0.00,,CLR,0.00,VWS V13.01,2013-06-16 00:27:00,
2013-06-15 20:32:00,73.6,49.7,30.02,SE,139,0.0,2.8,43,0.00,,CLR,0.00,VWS V13.01,2013-06-16 00:32:00,
2013-06-15 20:37:00,73.2,50.0,30.02,SE,139,0.0,0.0,44,0.00,,CLR,0.00,VWS V13.01,2013-06-16 00:37:00,
2013-06-15 20:42:00,72.9,50.9,30.02,SE,139,0.0,0.0,46,0.00,,SCT075,0.00,VWS V13.01,2013-06-16 00:42:00,
2013-06-15 20:47:00,72.5,50.6,30.02,SE,139,0.0,0.0,46,0.00,,SCT075,0.00,VWS V13.01,2013-06-16 00:47:00,
2013-06-15 20:52:00,72.1,50.2,30.02,SE,139,0.0,0.0,46,0.00,,SCT075,0.00,VWS V13.01,2013-06-16 00:52:00,
2013-06-15 20:57:00,71.6,50.3,30.02,SE,139,0.0,0.0,47,0.00,,SCT075,0.00,VWS V13.01,2013-06-16 00:57:00,
2013-06-15 21:02:00,71.2,50.0,30.02,SE,139,0.0,0.0,47,0.00,,SCT075,0.00,VWS V13.01,2013-06-16 01:02:00,
2013-06-15 21:07:00,70.9,49.7,30.02,SE,139,0.0,0.0,47,0.00,,SCT075,0.00,VWS V13.01,2013-06-16 01:07:00,
2013-06-15 21:12:00,70.5,49.3,30.02,SE,139,0.0,0.0,47,0.00,,SCT075,0.00,VWS V13.01,2013-06-16 01:12:00,
2013-06-15 21:17:00,70.3,49.7,30.02,North,357,0.0,0.0,48,0.00,,SCT075,0.00,VWS V13.01,2013-06-16 01:17:00,
2013-06-15 21:22:00,70.2,49.6,30.02,North,357,0.0,0.0,48,0.00,,SCT075,0.00,VWS V13.01,2013-06-16 01:22:00,
2013-06-15 21:27:00,70.0,49.4,30.02,WSW,257,0.0,0.0,48,0.00,,SCT075,0.00,VWS V13.01,2013-06-16 01:27:00,
2013-06-15 21:32:00,69.6,49.1,30.02,West,277,0.0,2.8,48,0.00,,SCT075,0.00,VWS V13.01,2013-06-16 01:32:00,
2013-06-15 21:37:00,69.4,49.5,30.02,WSW,257,3.9,5.0,49,0.00,,CLR,0.00,VWS V13.01,2013-06-16 01:37:00,
2013-06-15 21:42:00,69.4,49.5,30.02,WSW,248,2.8,3.9,49,0.00,,CLR,0.00,VWS V13.01,2013-06-16 01:42:00,
2013-06-15 21:47:00,69.3,49.3,30.02,WSW,245,0.0,0.0,49,0.00,,CLR,0.00,VWS V13.01,2013-06-16 01:47:00,
2013-06-15 21:52:00,68.9,49.0,30.02,WSW,245,0.0,0.0,49,0.00,,CLR,0.00,VWS V13.01,2013-06-16 01:52:00,
2013-06-15 21:57:00,68.7,48.8,30.02,WSW,245,0.0,0.0,49,0.00,,CLR,0.00,VWS V13.01,2013-06-16 01:57:00,
2013-06-15 22:02:00,68.5,49.2,30.02,SW,234,0.0,0.0,50,0.00,,CLR,0.00,VWS V13.01,2013-06-16 02:02:00,
2013-06-15 22:07:00,68.2,48.8,30.02,WSW,249,0.0,0.0,50,0.00,,CLR,0.00,VWS V13.01,2013-06-16 02:07:00,
2013-06-15 22:13:00,67.8,49.0,30.02,WSW,257,3.9,3.9,51,0.00,,CLR,0.00,VWS V13.01,2013-06-16 02:13:00,
2013-06-15 22:18:00,67.8,49.6,30.02,WSW,256,3.9,4.5,52,0.00,,CLR,0.00,VWS V13.01,2013-06-16 02:18:00,
2013-06-15 22:23:00,67.6,50.4,30.02,West,259,4.5,5.0,54,0.00,,CLR,0.00,VWS V13.01,2013-06-16 02:23:00,
2013-06-15 22:28:00,67.5,50.2,30.02,West,261,2.8,4.5,54,0.00,,CLR,0.00,VWS V13.01,2013-06-16 02:28:00,
2013-06-15 22:33:00,67.1,49.9,30.02,West,261,0.0,0.0,54,0.00,,CLR,0.00,VWS V13.01,2013-06-16 02:33:00,
2013-06-15 22:38:00,66.9,50.7,30.02,WSW,253,3.4,3.9,56,0.00,,CLR,0.00,VWS V13.01,2013-06-16 02:38:00,
2013-06-15 22:43:00,66.4,50.2,30.02,WSW,253,0.0,3.4,56,0.00,,CLR,0.00,VWS V13.01,2013-06-16 02:43:00,
2013-06-15 22:48:00,66.0,50.4,30.02,West,276,3.4,3.4,57,0.00,,CLR,0.00,VWS V13.01,2013-06-16 02:48:00,
2013-06-15 22:53:00,66.0,50.4,30.02,West,270,3.4,3.4,57,0.00,,CLR,0.00,VWS V13.01,2013-06-16 02:53:00,
2013-06-15 22:58:00,65.8,50.2,30.05,West,275,3.4,4.5,57,0.00,,CLR,0.00,VWS V13.01,2013-06-16 02:58:00,
2013-06-15 23:03:00,65.7,50.5,30.05,West,268,3.9,4.5,58,0.00,,CLR,0.00,VWS V13.01,2013-06-16 03:03:00,
2013-06-15 23:08:00,65.5,50.3,30.05,WNW,297,3.9,6.2,58,0.00,,CLR,0.00,VWS V13.01,2013-06-16 03:08:00,
2013-06-15 23:13:00,65.5,50.3,30.05,West,269,3.4,3.9,58,0.00,,CLR,0.00,VWS V13.01,2013-06-16 03:13:00,
2013-06-15 23:18:00,65.7,50.5,30.05,West,266,2.8,3.9,58,0.00,,CLR,0.00,VWS V13.01,2013-06-16 03:18:00,
2013-06-15 23:23:00,65.7,50.5,30.05,West,278,3.9,3.9,58,0.00,,CLR,0.00,VWS V13.01,2013-06-16 03:23:00,
2013-06-15 23:28:00,65.5,49.9,30.05,West,275,3.4,3.4,57,0.00,,CLR,0.00,VWS V13.01,2013-06-16 03:28:00,
2013-06-15 23:33:00,65.3,49.7,30.05,West,271,0.0,0.0,57,0.00,,CLR,0.00,VWS V13.01,2013-06-16 03:33:00,
2013-06-15 23:38:00,64.9,49.8,30.05,WNW,283,0.0,2.8,58,0.00,,CLR,0.00,VWS V13.01,2013-06-16 03:38:00,
2013-06-15 23:43:00,64.8,49.7,30.05,WSW,249,3.9,3.9,58,0.00,,CLR,0.00,VWS V13.01,2013-06-16 03:43:00,
2013-06-15 23:48:00,64.4,49.3,30.05,WSW,252,3.4,5.0,58,0.00,,CLR,0.00,VWS V13.01,2013-06-16 03:48:00,
2013-06-15 23:53:00,64.2,49.2,30.05,WSW,240,0.0,0.0,58,0.00,,CLR,0.00,VWS V13.01,2013-06-16 03:53:00,
2013-06-15 23:58:00,64.0,49.4,30.05,WSW,238,0.0,0.0,59,0.00,,CLR,0.00,VWS V13.01,2013-06-16 03:58:00,